EW4036 Weather Reports


time (UTC)temp
F
wind
direction
speed
knots
gust
knots
rain 1hr
in
rain 24hr
in
rain mn
in
humidity
%
barometer
mb
20260502214535 58 257 9.6 16.5 0.00 0.00 0.00 61 1008.7
20260502213134 58 276 10.4 13.9 0.00 0.00 0.00 65 1008.5
20260502211544 59 284 4.3 7.8 0.00 0.00 0.00 65 1008.4
20260502210033 59 232 3.5 6.1 0.00 0.00 0.00 64 1008.2
20260502204541 60 227 5.2 7.8 0.00 0.00 0.00 63 1008.1
20260502203138 60 219 5.2 8.7 0.00 0.00 0.00 62 1008.0
20260502201536 60 212 4.3 7.0 0.00 0.00 0.00 61 1008.1
20260502200041 60 220 5.2 8.7 0.00 0.00 0.00 61 1008.3
20260502194537 60 224 1.7 4.3 0.00 0.00 0.00 61 1008.3
20260502193034 60 195 2.6 4.3 0.00 0.00 0.00 60 1008.3
20260502191539 61 217 2.6 5.2 0.00 0.00 0.00 59 1008.3
20260502184535 62 249 1.7 5.2 0.00 0.00 0.00 57 1008.2
20260502183134 63 288 2.6 6.1 0.00 0.00 0.00 56 1008.1
20260502181534 64 257 3.5 7.0 0.00 0.00 0.00 54 1008.2
20260502163135 68 273 5.2 9.6 0.00 0.00 0.00 47 1008.3
20260502161534 68 269 7.8 11.3 0.00 0.00 0.00 46 1008.5
20260502151538 71 213 8.7 20.9 0.00 0.00 0.00 37 1008.9
20260502130133 72 262 13.9 29.5 0.00 0.00 0.00 38 1010.2
20260502123033 72 249 11.3 23.5 0.00 0.00 0.00 39 1010.5
20260502121633 71 266 15.6 24.3 0.00 0.00 0.00 38 1010.7
20260502114538 71 209 15.6 23.5 0.00 0.00 0.00 40 1011.1
20260502113039 70 223 13.9 24.3 0.00 0.00 0.00 42 1011.2
20260502111633 70 250 14.8 26.9 0.00 0.00 0.00 41 1011.5
20260502110036 71 221 13.9 19.1 0.00 0.00 0.00 42 1011.7
20260502104547 69 230 16.5 22.6 0.00 0.00 0.00 40 1011.9
20260502103035 70 217 11.3 20.0 0.00 0.00 0.00 44 1012.0
20260502101536 70 238 12.2 20.0 0.00 0.00 0.00 44 1012.3
20260502070042 57 196 4.3 7.8 0.00 0.00 0.00 63 1014.7
20260502064539 56 178 4.3 7.0 0.00 0.00 0.00 64 1015.0
20260502063037 55 206 4.3 7.8 0.00 0.00 0.00 65 1015.1
20260502061535 54 171 4.3 7.0 0.00 0.00 0.00 67 1015.3
20260502060033 53 160 3.5 6.1 0.00 0.00 0.00 69 1015.4
20260502054537 52 172 2.6 6.1 0.00 0.00 0.00 71 1015.6
20260502053038 51 148 3.5 5.2 0.00 0.00 0.00 72 1015.7
20260502051557 50 182 2.6 4.3 0.00 0.00 0.00 73 1015.7
20260502050038 48 157 1.7 4.3 0.00 0.00 0.00 76 1015.8
20260502044537 47 155 0.9 5.2 0.00 0.00 0.00 79 1016.0
20260502043044 46 179 3.5 7.0 0.00 0.00 0.00 80 1016.1
20260502041540 45 157 3.5 6.1 0.00 0.00 0.00 82 1016.2
20260502040036 44 145 2.6 4.3 0.00 0.00 0.00 83 1016.4
20260502034545 44 167 2.6 4.3 0.00 0.00 0.00 82 1016.6
20260502033048 43 153 2.6 4.3 0.00 0.00 0.00 83 1016.7
20260502031547 42 160 2.6 4.3 0.00 0.00 0.00 82 1016.8
20260502030033 43 145 3.5 6.1 0.00 0.00 0.00 79 1016.9
20260502024535 44 141 2.6 5.2 0.00 0.00 0.00 78 1017.0
20260502023033 44 146 1.7 4.3 0.00 0.00 0.00 76 1017.2
20260502021634 45 164 2.6 3.5 0.00 0.00 0.00 75 1017.3
20260502020033 45 171 1.7 5.2 0.00 0.00 0.00 74 1017.5
20260502014534 46 167 3.5 5.2 0.00 0.00 0.00 73 1017.6
20260502011545 48 205 4.3 6.1 0.00 0.00 0.00 71 1017.9
20260502010036 48 240 3.5 6.1 0.00 0.00 0.00 71 1018.1
20260502004536 48 198 1.7 5.2 0.00 0.00 0.00 69 1018.1
20260502003135 49 197 3.5 6.1 0.00 0.00 0.00 68 1018.3
20260502001537 49 205 4.3 7.0 0.00 0.00 0.00 67 1018.3
20260502000033 50 205 5.2 10.4 0.00 0.00 0.00 66 1018.4
20260501234548 50 192 7.0 10.4 0.00 0.00 0.00 65 1018.5
20260501233132 51 198 7.0 13.0 0.00 0.00 0.00 64 1018.6
20260501231547 51 204 6.1 11.3 0.00 0.00 0.00 64 1018.7
20260501230036 50 188 5.2 9.6 0.00 0.00 0.00 66 1018.7
20260501224532 50 192 6.1 10.4 0.00 0.00 0.00 66 1018.8
20260501223035 50 188 4.3 8.7 0.00 0.00 0.00 65 1018.8
20260501221538 50 190 5.2 7.8 0.00 0.00 0.00 64 1019.0
20260501220036 51 187 4.3 7.0 0.00 0.00 0.00 63 1019.1